User: anonymous   Login
Location: Unspecified
(0.0000°N, 0.0000°E)
Time: 18:08:13
(UTC+00:00)
Language:

CENTISPACE-1 S10 - Orbit

View from above orbital plane
View from above orbital plane
View from above satellite
View from above satellite

Ground track
Ground track

The orbit is defined by the following mean orbital elements,

1 62579U          26145.46510074 +.00000000 +00000-0 +35869-4 0 00002
2 62579  54.9903  10.9171 0012985  55.5371 304.6810 13.80606116    05
Epoch (UTC): 25 May 2026 11:09:44
Eccentricity: 0.0012985
inclination: 54.9903°
perigee height: 952 km
apogee height: 971 km
right ascension of ascending node: 10.9171°
argument of perigee: 55.5371°
revolutions per day: 13.80606116
mean anomaly at epoch: 304.6810°

The dashed part of the orbit path shows where the satellite is in the earth's shadow,  

DLR